CZ-6A DEB, 56255

Orbit data source: Space-Track

CZ-6A DEB, 56255 is space debris in SSO originally from a launch on Fri, 11 Nov 2022 UTC launched from the Taiyaun Space Center, China (TSC). Debris objects in space refer to the collection of defunct objects orbiting the Earth. Examples of debris include non-operational satellites, rocket bodies, and fragments generated from explosions, collisions, or faulty payload assembly.

Loading next visibility...
Identifier
56255, 2022-151ABX
Orbit
SSO
Country
Flag of CNCN / PRC
Related business
Manufacturer
SAST
Mission
Spacecraft
Bus & Motor
Unknown
Mass
Unknown
Launch date (UTC)
2022-11-11 (3 years ago)
Launch vehicle
Unknown
Launch site
Taiyaun Space Center, China (TSC)
Object type
Payload
Rocket body
Debris
Shape & HBR
Unknown shape, 0.1 m
Radar Cross Section
Small (<0.1 m²)

Expand to show TLE details & history
Last TLE update: 3 days ago

TLE from 3 days ago
0 CZ-6A DEB
1 56255U 22151ABX 25347.19871502  .00005186  00000-0  33099-2 0  9994
2 56255  98.9036 319.9570 0140559 209.1004 150.2275 13.99216314137983
Epoch: 2025-12-13T04:46Z
TLE epoch observation values (Epoch: 2025-12-13T04:46:08.977Z)
Latitude
-0°
Longitude
166.29017°
Altitude
988.51 km
Speed
7.312 km/s
True Right ascension
21h 19m 49s
True Declination
0° 00' 00"
Sunlit
Object was in daylight at epoch
Visualization orbit readout
Latitude
Unknown
Longitude
Unknown
Altitude
Unknown
Speed
Unknown
Apparent Right ascension
Unknown
Apparent Declination
Unknown
Sunlit
N/A
Visualization observer readout
Local Sidereal Time
08:25:54
Azimuth
Unknown
Elevation
Unknown
Doppler factor
Unknown
Orbital elements
Apogee altitude
995.917 km
Perigee altitude
791.493 km
Semi-major axis
7,271.842 km
Eccentricity
0.01406
Inclination
98.9036°
RAAN
319.957°
Arg. of periapsis
209.1004°
True anomaly
151.01525°
Mean anomaly
150.2275°
Eccentric anomaly
150.62257°
Mean motion
3.50007 °/min
Orbital period
102.86 mins
BSTAR
0.0033099
Loading maneuver chart data...
Computing Atmospheric mass density...
Loading historical data...
Loading historical data...
Loading historical data...
Loading historical data...
Loading historical data...
Loading historical data...
Loading historical data...

Documentation

Showing up to 5 results
|